QPF
0.00 0.00 0.00 0.00 0.00 0.00 0.00 0.00 0.00 0.00 0.00 0.00 0.00 0.00 0.00 0.00 0.00 0.00 0.00 0.00 0.00 0.00 0.00 0.01 0.00 0.00 0.00 0.01 0.01 0.03 0.03 0.03 0.02 0.01 0.01 0.00 0.00 0.00 0.00 0.00 0.00 0.00 0.00 0.00
0.00 0.00 0.00 0.00 0.00 0.00 0.00 0.00 0.00 0.00 0.00 0.00 0.00 0.00 0.00 0.00 0.00 0.00 0.00 0.01 0.00 0.00 0.01 0.01 0.00 0.00 0.00 0.00 0.01 0.01 0.01 0.01 0.01 0.01 0.01 0.00 0.00 0.00 0.00 0.00 0.00 0.00 0.00 0.00
0.00 0.00 0.00 0.00 0.00 0.00 0.00 0.00 0.00 0.00 0.00 0.00 0.00 0.00 0.00 0.00 0.00 0.00 0.00 0.01 0.01 0.01 0.02 0.02 0.01 0.01 0.01 0.01 0.01 0.01 0.01 0.01 0.01 0.01 0.00 0.00 0.00 0.00 0.00 0.00 0.00 0.00 0.00 0.00
0.00 0.00 0.00 0.00 0.00 0.00 0.00 0.00 0.00 0.00 0.00 0.00 0.00 0.00 0.00 0.00 0.00 0.00 0.00 0.01 0.01 0.02 0.02 0.03 0.02 0.02 0.02 0.01 0.01 0.01 0.01 0.01 0.01 0.01 0.01 0.01 0.01 0.00 0.00 0.00 0.00 0.00 0.00 0.00
0.00 0.00 0.00 0.00 0.00 0.00 0.00 0.00 0.00 0.00 0.00 0.00 0.00 0.00 0.00 0.00 0.00 0.00 0.01 0.02 0.02 0.03 0.04 0.04 0.04 0.03 0.02 0.01 0.01 0.01 0.01 0.02 0.02 0.02 0.02 0.02 0.01 0.00 0.00 0.00 0.00 0.00 0.00 0.00
0.00 0.00 0.00 0.00 0.00 0.00 0.00 0.00 0.00 0.00 0.00 0.00 0.00 0.00 0.00 0.00 0.00 0.01 0.02 0.04 0.06 0.09 0.11 0.11 0.08 0.05 0.03 0.01 0.01 0.01 0.02 0.03 0.03 0.03 0.02 0.02 0.01 0.01 0.00 0.00 0.00 0.00 0.00 0.00
0.00 0.00 0.00 0.00 0.00 0.00 0.00 0.00 0.00 0.00 0.00 0.00 0.00 0.00 0.00 0.00 0.00 0.01 0.02 0.04 0.08 0.10 0.12 0.13 0.11 0.07 0.05 0.04 0.03 0.02 0.02 0.03 0.03 0.02 0.02 0.01 0.01 0.01 0.00 0.00 0.00 0.00 0.00 0.00
0.00 0.00 0.00 0.00 0.00 0.00 0.00 0.00 0.00 0.00 0.00 0.00 0.00 0.00 0.00 0.00 0.00 0.00 0.01 0.02 0.04 0.05 0.07 0.09 0.08 0.06 0.05 0.04 0.03 0.03 0.02 0.02 0.01 0.01 0.01 0.00 0.00 0.00 0.00 0.00 0.00 0.00 0.00 0.00
0.00 0.00 0.00 0.00 0.00 0.00 0.00 0.00 0.00 0.00 0.00 0.00 0.00 0.00 0.00 0.00 0.00 0.00 0.00 0.01 0.02 0.03 0.03 0.04 0.04 0.04 0.03 0.02 0.02 0.01 0.01 0.01 0.01 0.00 0.00 0.00 0.00 0.00 0.00 0.00 0.00 0.00 0.00 0.00
0.00 0.00 0.00 0.00 0.00 0.00 0.00 0.00 0.00 0.00 0.00 0.00 0.00 0.00 0.00 0.00 0.00 0.00 0.00 0.00 0.01 0.01 0.02 0.02 0.02 0.02 0.02 0.01 0.01 0.01 0.00 0.00 0.00 0.00 0.00 0.00 0.00 0.00 0.00 0.00 0.00 0.00 0.00 0.00
0.00 0.00 0.00 0.00 0.00 0.00 0.00 0.00 0.00 0.00 0.00 0.00 0.00 0.00 0.00 0.00 0.00 0.00 0.00 0.00 0.00 0.01 0.01 0.01 0.01 0.01 0.01 0.01 0.01 0.01 0.00 0.00 0.00 0.00 0.00 0.00 0.01 0.01 0.00 0.00 0.00 0.00 0.00 0.00
0.00 0.00 0.00 0.00 0.00 0.00 0.00 0.00 0.00 0.00 0.00 0.00 0.00 0.00 0.00 0.00 0.00 0.00 0.00 0.00 0.00 0.00 0.00 0.00 0.00 0.00 0.00 0.00 0.01 0.01 0.01 0.00 0.00 0.00 0.00 0.00 0.00 0.01 0.01 0.01 0.01 0.01 0.01 0.00
0.00 0.00 0.00 0.00 0.00 0.00 0.00 0.00 0.00 0.00 0.00 0.00 0.01 0.01 0.00 0.00 0.00 0.00 0.00 0.00 0.00 0.00 0.00 0.00 0.00 0.00 0.01 0.01 0.01 0.00 0.00 0.00 0.00 0.00 0.00 0.00 0.00 0.00 0.00 0.00 0.01 0.02 0.01 0.01
0.00 0.00 0.00 0.00 0.00 0.00 0.00 0.00 0.00 0.00 0.01 0.02 0.03 0.02 0.00 0.00 0.00 0.00 0.00 0.00 0.00 0.00 0.00 0.00 0.00 0.00 0.00 0.00 0.00 0.00 0.00 0.00 0.00 0.01 0.01 0.01 0.01 0.01 0.00 0.00 0.01 0.01 0.02 0.02
0.00 0.00 0.00 0.00 0.00 0.00 0.00 0.00 0.00 0.01 0.02 0.04 0.03 0.01 0.00 0.00 0.00 0.00 0.00 0.00 0.00 0.00 0.00 0.00 0.00 0.00 0.01 0.01 0.01 0.01 0.01 0.01 0.01 0.02 0.02 0.02 0.02 0.02 0.02 0.02 0.01 0.01 0.02 0.02
0.00 0.00 0.00 0.00 0.00 0.00 0.00 0.00 0.00 0.01 0.01 0.01 0.00 0.00 0.00 0.00 0.00 0.00 0.00 0.01 0.01 0.01 0.01 0.01 0.01 0.01 0.01 0.00 0.00 0.01 0.01 0.01 0.01 0.01 0.01 0.01 0.01 0.01 0.01 0.01 0.01 0.01 0.02 0.03
0.00 0.00 0.00 0.00 0.00 0.00 0.01 0.00 0.01 0.00 0.00 0.00 0.00 0.00 0.00 0.01 0.01 0.01 0.02 0.01 0.01 0.01 0.00 0.00 0.00 0.00 0.00 0.00 0.00 0.00 0.00 0.00 0.00 0.00 0.00 0.00 0.00 0.00 0.00 0.01 0.01 0.02 0.03 0.04
0.00 0.00 0.00 0.00 0.00 0.01 0.01 0.00 0.00 0.00 0.00 0.00 0.00 0.00 0.01 0.01 0.01 0.01 0.01 0.00 0.00 0.00 0.00 0.00 0.00 0.00 0.00 0.00 0.00 0.00 0.00 0.00 0.00 0.00 0.00 0.00 0.00 0.00 0.00 0.01 0.02 0.03 0.04 0.05
0.00 0.00 0.00 0.00 0.00 0.00 0.00 0.00 0.00 0.00 0.00 0.00 0.00 0.00 0.00 0.00 0.00 0.00 0.00 0.00 0.00 0.00 0.00 0.00 0.00 0.00 0.00 0.00 0.00 0.00 0.00 0.00 0.00 0.00 0.00 0.00 0.00 0.00 0.00 0.00 0.02 0.04 0.07 0.08
0.00 0.00 0.00 0.00 0.00 0.00 0.00 0.00 0.00 0.00 0.01 0.00 0.00 0.00 0.00 0.00 0.00 0.00 0.00 0.00 0.00 0.00 0.00 0.00 0.00 0.00 0.00 0.00 0.00 0.00 0.00 0.00 0.00 0.00 0.00 0.00 0.00 0.00 0.00 0.01 0.02 0.05 0.10 0.14
0.00 0.00 0.00 0.00 0.00 0.00 0.00 0.00 0.00 0.00 0.00 0.00 0.00 0.00 0.00 0.00 0.00 0.00 0.00 0.00 0.00 0.00 0.00 0.00 0.00 0.00 0.00 0.00 0.00 0.00 0.00 0.00 0.00 0.00 0.00 0.00 0.00 0.01 0.01 0.02 0.03 0.06 0.13 0.21
0.00 0.00 0.00 0.00 0.01 0.01 0.00 0.00 0.00 0.00 0.00 0.00 0.00 0.00 0.00 0.00 0.00 0.00 0.00 0.00 0.00 0.00 0.00 0.00 0.00 0.00 0.00 0.00 0.00 0.00 0.00 0.00 0.00 0.01 0.01 0.01 0.01 0.01 0.00 0.01 0.03 0.06 0.16 0.29
0.00 0.00 0.00 0.00 0.00 0.00 0.00 0.00 0.00 0.00 0.00 0.00 0.00 0.00 0.00 0.00 0.00 0.00 0.00 0.00 0.00 0.00 0.00 0.00 0.00 0.00 0.00 0.00 0.00 0.01 0.01 0.01 0.01 0.01 0.01 0.01 0.02 0.02 0.02 0.02 0.03 0.05 0.17 0.36
0.00 0.00 0.00 0.00 0.00 0.00 0.00 0.00 0.00 0.00 0.00 0.00 0.00 0.00 0.00 0.00 0.00 0.00 0.00 0.00 0.00 0.00 0.00 0.00 0.00 0.00 0.00 0.00 0.01 0.01 0.01 0.02 0.02 0.02 0.02 0.02 0.02 0.02 0.02 0.03 0.04 0.06 0.15 0.36
0.00 0.00 0.00 0.00 0.00 0.00 0.00 0.00 0.00 0.00 0.00 0.00 0.00 0.00 0.00 0.00 0.00 0.00 0.00 0.00 0.00 0.00 0.00 0.00 0.00 0.01 0.01 0.01 0.02 0.02 0.03 0.04 0.04 0.04 0.03 0.02 0.02 0.03 0.03 0.03 0.03 0.05 0.13 0.32
0.00 0.00 0.00 0.00 0.00 0.00 0.00 0.00 0.00 0.00 0.00 0.00 0.00 0.00 0.00 0.00 0.00 0.00 0.00 0.00 0.00 0.00 0.00 0.01 0.01 0.02 0.02 0.03 0.03 0.04 0.05 0.06 0.07 0.06 0.05 0.04 0.03 0.04 0.03 0.03 0.03 0.03 0.09 0.21
MSLP
1011.30 1011.55 1011.69 1011.72 1011.68 1011.61 1011.52 1011.44 1011.36 1011.26 1011.10 1010.87 1010.55 1010.17 1009.74 1009.31 1008.92 1008.62 1008.42 1008.33 1008.32 1008.39 1008.48 1008.59 1008.71 1008.82 1008.96 1009.13 1009.36 1009.66 1010.00 1010.38 1010.75 1011.09 1011.37 1011.56 1011.68 1011.73 1011.73 1011.71 1011.69 1011.67 1011.65 1011.62
1011.55 1011.75 1011.84 1011.85 1011.80 1011.74 1011.71 1011.69 1011.68 1011.65 1011.57 1011.39 1011.11 1010.74 1010.30 1009.83 1009.39 1009.02 1008.75 1008.59 1008.53 1008.55 1008.61 1008.70 1008.79 1008.89 1009.01 1009.15 1009.35 1009.60 1009.90 1010.24 1010.58 1010.89 1011.16 1011.36 1011.49 1011.56 1011.58 1011.59 1011.58 1011.57 1011.56 1011.52
1011.71 1011.86 1011.93 1011.92 1011.90 1011.89 1011.91 1011.97 1012.04 1012.09 1012.07 1011.95 1011.72 1011.36 1010.92 1010.44 1009.97 1009.56 1009.25 1009.06 1008.96 1008.96 1009.00 1009.07 1009.15 1009.22 1009.31 1009.41 1009.55 1009.73 1009.95 1010.21 1010.47 1010.73 1010.95 1011.12 1011.24 1011.33 1011.38 1011.41 1011.44 1011.46 1011.46 1011.44
1011.78 1011.90 1011.95 1011.96 1011.97 1012.01 1012.10 1012.24 1012.40 1012.53 1012.58 1012.52 1012.33 1012.01 1011.59 1011.13 1010.66 1010.26 1009.95 1009.75 1009.65 1009.63 1009.67 1009.73 1009.78 1009.82 1009.86 1009.89 1009.94 1010.03 1010.14 1010.29 1010.45 1010.61 1010.76 1010.88 1010.97 1011.05 1011.11 1011.17 1011.24 1011.30 1011.35 1011.36
1011.80 1011.89 1011.93 1011.95 1012.00 1012.10 1012.26 1012.47 1012.70 1012.91 1013.03 1013.04 1012.91 1012.66 1012.30 1011.89 1011.48 1011.11 1010.84 1010.66 1010.58 1010.57 1010.60 1010.63 1010.65 1010.64 1010.61 1010.56 1010.51 1010.48 1010.47 1010.48 1010.52 1010.56 1010.61 1010.66 1010.70 1010.75 1010.81 1010.89 1010.98 1011.09 1011.18 1011.24
1011.81 1011.87 1011.90 1011.93 1012.01 1012.15 1012.36 1012.63 1012.92 1013.19 1013.38 1013.47 1013.43 1013.27 1013.00 1012.69 1012.37 1012.09 1011.88 1011.75 1011.70 1011.69 1011.71 1011.72 1011.69 1011.61 1011.50 1011.36 1011.20 1011.04 1010.90 1010.78 1010.69 1010.61 1010.55 1010.51 1010.48 1010.48 1010.51 1010.58 1010.69 1010.81 1010.93 1011.03
1011.87 1011.88 1011.89 1011.92 1012.00 1012.15 1012.39 1012.69 1013.02 1013.34 1013.60 1013.78 1013.85 1013.80 1013.67 1013.49 1013.30 1013.13 1013.01 1012.94 1012.92 1012.92 1012.92 1012.88 1012.79 1012.64 1012.44 1012.20 1011.94 1011.68 1011.43 1011.20 1010.99 1010.80 1010.63 1010.48 1010.37 1010.29 1010.27 1010.29 1010.37 1010.49 1010.61 1010.72
1011.99 1011.96 1011.93 1011.92 1011.98 1012.12 1012.35 1012.65 1013.00 1013.37 1013.70 1013.97 1014.15 1014.25 1014.28 1014.26 1014.21 1014.17 1014.15 1014.14 1014.15 1014.14 1014.10 1014.01 1013.85 1013.62 1013.34 1013.02 1012.68 1012.34 1012.01 1011.70 1011.40 1011.13 1010.86 1010.62 1010.41 1010.24 1010.12 1010.07 1010.08 1010.14 1010.23 1010.32
1012.17 1012.09 1012.01 1011.96 1011.97 1012.07 1012.26 1012.55 1012.91 1013.30 1013.69 1014.06 1014.37 1014.62 1014.81 1014.95 1015.06 1015.15 1015.21 1015.26 1015.27 1015.25 1015.16 1014.99 1014.76 1014.46 1014.12 1013.75 1013.36 1012.99 1012.62 1012.27 1011.92 1011.58 1011.25 1010.92 1010.61 1010.33 1010.10 1009.94 1009.84 1009.81 1009.82 1009.84
1012.39 1012.26 1012.13 1012.03 1011.98 1012.03 1012.18 1012.44 1012.78 1013.20 1013.65 1014.10 1014.54 1014.93 1015.28 1015.57 1015.80 1015.99 1016.13 1016.20 1016.21 1016.13 1015.98 1015.75 1015.45 1015.09 1014.71 1014.31 1013.92 1013.54 1013.18 1012.84 1012.48 1012.12 1011.74 1011.34 1010.94 1010.55 1010.20 1009.90 1009.67 1009.52 1009.42 1009.35
1012.60 1012.44 1012.27 1012.12 1012.03 1012.03 1012.14 1012.37 1012.71 1013.15 1013.64 1014.17 1014.71 1015.22 1015.68 1016.08 1016.41 1016.66 1016.82 1016.89 1016.86 1016.73 1016.51 1016.20 1015.84 1015.45 1015.04 1014.65 1014.28 1013.94 1013.63 1013.32 1012.99 1012.63 1012.24 1011.79 1011.32 1010.84 1010.37 1009.94 1009.57 1009.28 1009.06 1008.89
1012.77 1012.59 1012.40 1012.23 1012.12 1012.09 1012.19 1012.41 1012.76 1013.21 1013.75 1014.33 1014.93 1015.51 1016.05 1016.51 1016.87 1017.13 1017.28 1017.30 1017.21 1017.01 1016.71 1016.34 1015.93 1015.51 1015.10 1014.73 1014.41 1014.12 1013.86 1013.61 1013.33 1013.00 1012.60 1012.14 1011.62 1011.07 1010.51 1009.97 1009.49 1009.09 1008.75 1008.49
1012.88 1012.71 1012.53 1012.37 1012.28 1012.27 1012.37 1012.61 1012.98 1013.45 1014.01 1014.62 1015.25 1015.85 1016.39 1016.84 1017.18 1017.40 1017.48 1017.42 1017.25 1016.96 1016.58 1016.15 1015.71 1015.27 1014.88 1014.54 1014.25 1014.02 1013.82 1013.62 1013.39 1013.09 1012.72 1012.26 1011.72 1011.14 1010.53 1009.93 1009.38 1008.89 1008.48 1008.15
1012.94 1012.81 1012.68 1012.57 1012.52 1012.57 1012.72 1013.00 1013.40 1013.89 1014.46 1015.06 1015.66 1016.22 1016.71 1017.09 1017.34 1017.46 1017.43 1017.27 1016.99 1016.62 1016.17 1015.69 1015.22 1014.77 1014.39 1014.07 1013.82 1013.63 1013.46 1013.30 1013.09 1012.83 1012.48 1012.04 1011.52 1010.94 1010.33 1009.73 1009.15 1008.64 1008.20 1007.83
1013.00 1012.93 1012.87 1012.85 1012.89 1013.01 1013.24 1013.58 1014.01 1014.51 1015.06 1015.62 1016.15 1016.61 1016.98 1017.23 1017.35 1017.32 1017.16 1016.88 1016.50 1016.04 1015.53 1015.02 1014.52 1014.07 1013.68 1013.37 1013.13 1012.94 1012.79 1012.63 1012.43 1012.18 1011.86 1011.45 1010.98 1010.44 1009.88 1009.31 1008.77 1008.28 1007.85 1007.49
1013.12 1013.12 1013.15 1013.23 1013.37 1013.60 1013.91 1014.31 1014.77 1015.27 1015.77 1016.25 1016.66 1016.98 1017.19 1017.26 1017.21 1017.02 1016.71 1016.31 1015.83 1015.29 1014.74 1014.20 1013.69 1013.23 1012.83 1012.51 1012.25 1012.03 1011.85 1011.66 1011.45 1011.20 1010.90 1010.53 1010.11 1009.65 1009.16 1008.68 1008.21 1007.78 1007.40 1007.07
1013.34 1013.42 1013.54 1013.72 1013.97 1014.29 1014.69 1015.13 1015.60 1016.07 1016.50 1016.86 1017.12 1017.27 1017.29 1017.16 1016.92 1016.56 1016.11 1015.60 1015.03 1014.45 1013.87 1013.31 1012.79 1012.32 1011.91 1011.56 1011.25 1010.99 1010.74 1010.51 1010.26 1009.99 1009.70 1009.37 1009.01 1008.63 1008.25 1007.86 1007.49 1007.14 1006.82 1006.53
1013.70 1013.84 1014.04 1014.31 1014.65 1015.05 1015.50 1015.96 1016.42 1016.82 1017.15 1017.37 1017.46 1017.41 1017.23 1016.91 1016.49 1015.98 1015.41 1014.80 1014.18 1013.57 1012.98 1012.42 1011.90 1011.42 1010.99 1010.60 1010.23 1009.90 1009.59 1009.28 1008.99 1008.69 1008.40 1008.10 1007.80 1007.51 1007.22 1006.94 1006.66 1006.39 1006.13 1005.88
1014.18 1014.38 1014.64 1014.98 1015.37 1015.81 1016.27 1016.72 1017.12 1017.43 1017.63 1017.69 1017.60 1017.36 1016.99 1016.50 1015.92 1015.29 1014.62 1013.96 1013.31 1012.69 1012.11 1011.56 1011.05 1010.57 1010.12 1009.68 1009.26 1008.86 1008.48 1008.11 1007.76 1007.43 1007.14 1006.87 1006.62 1006.39 1006.18 1005.98 1005.77 1005.56 1005.35 1005.12
1014.76 1014.99 1015.29 1015.65 1016.06 1016.50 1016.93 1017.31 1017.62 1017.81 1017.87 1017.77 1017.51 1017.10 1016.56 1015.93 1015.24 1014.51 1013.79 1013.10 1012.44 1011.84 1011.27 1010.75 1010.25 1009.77 1009.30 1008.83 1008.37 1007.91 1007.47 1007.05 1006.66 1006.32 1006.02 1005.76 1005.55 1005.37 1005.21 1005.06 1004.90 1004.73 1004.53 1004.31
1015.38 1015.63 1015.93 1016.29 1016.67 1017.05 1017.41 1017.70 1017.89 1017.94 1017.85 1017.59 1017.18 1016.63 1015.97 1015.23 1014.46 1013.68 1012.94 1012.24 1011.59 1011.01 1010.47 1009.96 1009.48 1009.00 1008.52 1008.03 1007.54 1007.05 1006.57 1006.12 1005.71 1005.36 1005.06 1004.82 1004.63 1004.48 1004.34 1004.22 1004.08 1003.91 1003.72 1003.50
1015.97 1016.22 1016.51 1016.83 1017.15 1017.45 1017.70 1017.86 1017.91 1017.82 1017.57 1017.17 1016.64 1015.98 1015.23 1014.43 1013.62 1012.83 1012.08 1011.39 1010.76 1010.19 1009.67 1009.17 1008.69 1008.21 1007.73 1007.23 1006.72 1006.22 1005.73 1005.28 1004.88 1004.53 1004.24 1004.01 1003.83 1003.68 1003.56 1003.43 1003.29 1003.13 1002.94 1002.73
1016.50 1016.74 1016.99 1017.24 1017.48 1017.66 1017.79 1017.81 1017.71 1017.47 1017.09 1016.58 1015.95 1015.21 1014.42 1013.59 1012.77 1011.98 1011.24 1010.56 1009.94 1009.37 1008.84 1008.34 1007.85 1007.36 1006.86 1006.36 1005.85 1005.36 1004.89 1004.46 1004.07 1003.74 1003.47 1003.25 1003.08 1002.93 1002.80 1002.67 1002.53 1002.37 1002.20 1002.02
1016.94 1017.16 1017.36 1017.53 1017.66 1017.72 1017.71 1017.58 1017.34 1016.98 1016.48 1015.88 1015.18 1014.40 1013.59 1012.76 1011.95 1011.17 1010.43 1009.75 1009.13 1008.54 1007.99 1007.45 1006.93 1006.41 1005.90 1005.38 1004.89 1004.41 1003.97 1003.57 1003.22 1002.92 1002.67 1002.47 1002.30 1002.15 1002.02 1001.89 1001.75 1001.62 1001.49 1001.37
1017.27 1017.45 1017.60 1017.69 1017.71 1017.65 1017.50 1017.24 1016.88 1016.40 1015.82 1015.15 1014.41 1013.62 1012.81 1011.99 1011.19 1010.42 1009.69 1008.99 1008.33 1007.70 1007.09 1006.50 1005.92 1005.36 1004.81 1004.29 1003.79 1003.34 1002.93 1002.58 1002.27 1002.01 1001.79 1001.60 1001.44 1001.30 1001.17 1001.05 1000.94 1000.85 1000.79 1000.77
1017.49 1017.64 1017.72 1017.73 1017.66 1017.49 1017.22 1016.85 1016.37 1015.81 1015.16 1014.46 1013.70 1012.91 1012.11 1011.32 1010.53 1009.76 1009.01 1008.27 1007.56 1006.85 1006.16 1005.49 1004.84 1004.22 1003.63 1003.09 1002.60 1002.17 1001.79 1001.48 1001.21 1000.99 1000.80 1000.63 1000.48 1000.35 1000.24 1000.15 1000.09 1000.08 1000.12 1000.22
Thickness
5774 5770 5767 5769 5775 5774 5773 5772 5773 5778 5789 5790 5787 5790 5797 5804 5805 5804 5804 5803 5800 5799 5802 5800 5798 5796 5792 5786 5780 5775 5769 5765 5759 5755 5751 5747 5746 5745 5744 5742 5739 5735 5734 5732
5765 5763 5770 5772 5771 5769 5769 5765 5768 5774 5782 5779 5777 5782 5793 5796 5795 5797 5797 5796 5795 5794 5792 5790 5789 5788 5784 5778 5773 5767 5762 5758 5753 5750 5746 5743 5740 5740 5740 5737 5734 5731 5729 5726
5761 5765 5773 5769 5765 5763 5763 5763 5762 5761 5770 5776 5768 5770 5780 5787 5789 5789 5789 5790 5791 5788 5784 5782 5780 5777 5774 5768 5764 5761 5756 5752 5748 5745 5742 5737 5733 5732 5733 5732 5731 5728 5724 5722
5765 5772 5769 5766 5764 5761 5757 5766 5761 5757 5754 5759 5759 5748 5772 5775 5774 5775 5777 5779 5779 5779 5777 5774 5769 5764 5761 5758 5756 5752 5748 5744 5741 5738 5736 5732 5728 5727 5728 5727 5726 5723 5719 5717
5761 5765 5762 5758 5761 5761 5759 5764 5759 5756 5750 5748 5754 5746 5762 5760 5754 5759 5761 5761 5762 5762 5759 5754 5751 5748 5748 5747 5745 5743 5740 5736 5734 5732 5729 5725 5725 5725 5726 5723 5720 5716 5717 5713
5764 5772 5768 5765 5769 5766 5763 5757 5755 5754 5752 5735 5742 5737 5741 5737 5731 5738 5741 5740 5739 5738 5735 5731 5729 5729 5728 5730 5732 5732 5729 5726 5726 5724 5723 5720 5719 5717 5716 5714 5713 5713 5713 5711
5755 5764 5771 5772 5761 5764 5758 5744 5733 5733 5736 5736 5744 5736 5723 5720 5720 5722 5722 5722 5722 5721 5719 5716 5713 5712 5712 5713 5715 5716 5717 5715 5716 5716 5715 5714 5712 5710 5708 5707 5708 5706 5707 5706
5742 5744 5763 5765 5756 5747 5751 5743 5723 5714 5723 5735 5743 5733 5716 5714 5713 5712 5711 5710 5709 5708 5707 5704 5701 5700 5698 5698 5698 5700 5701 5701 5703 5704 5705 5705 5704 5705 5706 5703 5702 5702 5701 5700
5745 5744 5765 5763 5760 5752 5745 5746 5751 5734 5732 5724 5735 5732 5709 5712 5704 5701 5699 5698 5695 5694 5693 5691 5689 5688 5686 5685 5684 5684 5685 5686 5688 5691 5692 5694 5695 5695 5696 5695 5694 5696 5694 5693
5755 5739 5757 5762 5761 5752 5748 5747 5738 5729 5712 5711 5727 5730 5728 5704 5693 5689 5685 5683 5682 5681 5680 5678 5676 5675 5673 5673 5672 5671 5671 5671 5672 5675 5677 5681 5682 5684 5685 5686 5688 5687 5687 5685
5758 5739 5747 5754 5746 5740 5740 5737 5731 5731 5723 5706 5707 5722 5705 5691 5681 5678 5675 5672 5670 5668 5667 5665 5663 5661 5660 5659 5658 5657 5656 5656 5657 5658 5659 5662 5665 5669 5673 5676 5678 5679 5679 5678
5753 5744 5736 5747 5753 5750 5742 5735 5728 5711 5710 5714 5706 5705 5691 5681 5675 5668 5664 5661 5659 5657 5656 5654 5651 5647 5645 5643 5642 5641 5641 5641 5641 5642 5642 5644 5648 5652 5657 5662 5666 5669 5670 5671
5748 5734 5724 5735 5737 5739 5734 5732 5728 5723 5715 5708 5700 5692 5677 5669 5662 5656 5651 5647 5645 5643 5641 5639 5636 5633 5629 5627 5625 5624 5624 5624 5624 5625 5625 5627 5629 5633 5638 5644 5650 5655 5659 5662
5744 5735 5726 5719 5728 5733 5727 5725 5721 5714 5705 5702 5698 5681 5663 5653 5645 5640 5635 5629 5626 5624 5621 5619 5616 5614 5611 5609 5608 5607 5607 5606 5606 5606 5607 5608 5610 5613 5618 5626 5633 5640 5646 5650
5741 5734 5737 5737 5739 5732 5722 5714 5708 5702 5696 5687 5682 5668 5647 5637 5630 5625 5621 5617 5613 5611 5609 5606 5604 5602 5599 5597 5595 5593 5592 5591 5590 5589 5590 5591 5594 5597 5601 5608 5615 5623 5630 5637
5736 5728 5730 5729 5731 5724 5708 5695 5690 5683 5678 5672 5661 5645 5637 5628 5621 5614 5610 5607 5605 5604 5602 5598 5594 5590 5586 5583 5580 5578 5576 5575 5573 5573 5575 5576 5578 5580 5584 5590 5597 5605 5613 5622
5735 5722 5718 5721 5724 5712 5693 5670 5669 5664 5659 5655 5643 5631 5625 5618 5612 5609 5606 5602 5598 5593 5587 5581 5575 5569 5565 5562 5560 5558 5556 5555 5554 5554 5556 5558 5559 5563 5567 5573 5578 5586 5595 5604
5720 5716 5714 5714 5708 5688 5661 5666 5659 5652 5647 5641 5630 5623 5618 5613 5609 5603 5598 5591 5582 5573 5565 5559 5553 5549 5546 5543 5541 5538 5537 5535 5534 5535 5536 5538 5540 5544 5549 5553 5559 5565 5574 5584
5717 5708 5708 5703 5698 5679 5658 5655 5647 5637 5637 5635 5621 5616 5612 5606 5598 5595 5587 5571 5558 5551 5546 5542 5538 5536 5535 5533 5531 5530 5528 5526 5524 5524 5524 5524 5525 5528 5531 5534 5539 5546 5554 5564
5716 5708 5703 5691 5677 5671 5644 5646 5641 5630 5625 5618 5610 5602 5595 5585 5578 5579 5566 5552 5545 5540 5536 5534 5533 5532 5530 5529 5526 5524 5523 5521 5519 5518 5517 5516 5516 5516 5517 5519 5523 5529 5536 5545
5698 5696 5686 5679 5672 5657 5642 5640 5636 5619 5613 5608 5598 5588 5577 5567 5557 5554 5549 5543 5537 5534 5532 5531 5530 5528 5525 5523 5520 5518 5517 5515 5514 5513 5512 5511 5510 5510 5510 5511 5513 5516 5522 5530
5684 5682 5673 5668 5657 5640 5634 5630 5615 5606 5603 5594 5584 5574 5563 5555 5548 5541 5536 5533 5532 5531 5531 5528 5525 5523 5519 5515 5512 5511 5510 5510 5508 5507 5506 5506 5506 5507 5510 5511 5511 5512 5515 5520
5677 5664 5662 5652 5645 5636 5630 5618 5611 5602 5591 5581 5571 5561 5550 5543 5538 5535 5533 5531 5530 5528 5526 5522 5518 5516 5512 5507 5503 5502 5502 5500 5499 5499 5499 5500 5501 5503 5505 5507 5510 5511 5514 5517
5665 5655 5650 5643 5641 5633 5624 5616 5605 5593 5580 5569 5557 5547 5538 5533 5532 5531 5530 5529 5527 5524 5519 5515 5511 5508 5504 5500 5495 5493 5492 5490 5489 5490 5490 5492 5495 5498 5501 5503 5508 5512 5516 5518
5656 5648 5641 5636 5631 5622 5618 5605 5593 5582 5571 5559 5548 5536 5529 5527 5527 5527 5527 5526 5523 5519 5513 5508 5503 5499 5496 5492 5488 5485 5482 5480 5480 5480 5481 5483 5487 5492 5497 5502 5506 5510 5513 5516
5652 5642 5631 5623 5617 5607 5603 5595 5584 5573 5562 5551 5541 5534 5529 5524 5525 5525 5523 5521 5517 5513 5508 5501 5495 5490 5487 5482 5480 5477 5474 5472 5471 5471 5472 5474 5478 5485 5492 5499 5504 5506 5507 5507